• In Germany
  • List of Countries
  • For 7 days
  • Water Temperature
  • Satellite Maps
  • Weather Map
  • Weather Widgets
  • user-avatar
    Login

    Hourly Weather Berat

    Today, 26 February, Monday

    Time Temperature Precipitation Wind Pressure Humidity
    00:00 +2°C° 2.7 mm 5 mps 733 mmHg 87%
    01:00 +2°C° 2.7 mm 5 mps 732 mmHg 86%
    02:00 +2°C° 2.1 mm 5 mps 732 mmHg 87%
    03:00 +2°C° 2.1 mm 5 mps 731 mmHg 88%
    04:00 +1°C° 2.1 mm 5 mps 731 mmHg 89%
    05:00 +1°C° 0.4 mm 4 mps 731 mmHg 89%
    06:00 +1°C° 0.4 mm 4 mps 732 mmHg 89%
    07:00 +1°C° 0.4 mm 4 mps 732 mmHg 89%
    08:00 +3°C° 0.3 mm 3 mps 732 mmHg 88%
    09:00 +3°C° 0.3 mm 3 mps 732 mmHg 87%
    10:00 +5°C° 0.3 mm 2 mps 732 mmHg 86%
    11:00 +6°C° 0.1 mm 2 mps 732 mmHg 85%
    12:00 +6°C° 0.1 mm 2 mps 732 mmHg 84%
    13:00 +7°C° 0.1 mm 2 mps 732 mmHg 84%
    14:00 +7°C° 0.1 mm 2 mps 732 mmHg 84%
    15:00 +7°C° 0.1 mm 2 mps 732 mmHg 84%
    16:00 +7°C° 0.1 mm 3 mps 732 mmHg 84%
    17:00 +7°C° 0.8 mm 2 mps 732 mmHg 87%
    18:00 +6°C° 0.8 mm 2 mps 732 mmHg 90%
    19:00 +6°C° 0.8 mm 1 mps 732 mmHg 93%
    20:00 +6°C° 0.6 mm 1 mps 732 mmHg 94%
    21:00 +5°C° 0.6 mm 2 mps 733 mmHg 95%
    22:00 +5°C° 0.6 mm 2 mps 733 mmHg 95%
    23:00 +5°C° 0.6 mm 2 mps 733 mmHg 95%

    Tomorrow, 27 February, Tuesday

    Time Temperature Precipitation Wind Pressure Humidity
    00:00 +4°C° 0.6 mm 3 mps 733 mmHg 95%
    01:00 +4°C° 0.6 mm 3 mps 734 mmHg 95%
    02:00 +4°C° 0.5 mm 3 mps 734 mmHg 94%
    03:00 +3°C° 0.5 mm 4 mps 734 mmHg 93%
    04:00 +3°C° 0.5 mm 4 mps 735 mmHg 92%
    05:00 +3°C° 0.4 mm 4 mps 735 mmHg 92%
    06:00 +1°C° 0.4 mm 4 mps 736 mmHg 92%
    07:00 +2°C° 0.4 mm 3 mps 736 mmHg 91%
    08:00 +3°C° 0.3 mm 4 mps 737 mmHg 88%
    09:00 +3°C° 0.3 mm 4 mps 737 mmHg 86%
    10:00 +4°C° 0.3 mm 4 mps 737 mmHg 83%
    11:00 +4°C° 0.2 mm 4 mps 737 mmHg 81%
    12:00 +4°C° 0.2 mm 4 mps 738 mmHg 79%
    13:00 +5°C° 0.2 mm 4 mps 738 mmHg 77%
    14:00 +4°C° 0.1 mm 3 mps 738 mmHg 77%
    15:00 +5°C° 0.1 mm 2 mps 738 mmHg 76%
    16:00 +5°C° 0.1 mm 2 mps 738 mmHg 75%
    17:00 +4°C° 0 mm 2 mps 738 mmHg 78%
    18:00 +3°C° 0 mm 2 mps 739 mmHg 81%
    19:00 +2°C° 0 mm 2 mps 739 mmHg 84%
    20:00 +2°C° 0.1 mm 2 mps 739 mmHg 84%
    21:00 +2°C° 0.1 mm 2 mps 739 mmHg 85%
    22:00 +3°C° 0.1 mm 2 mps 739 mmHg 85%
    23:00 +3°C° 0.4 mm 2 mps 739 mmHg 87%

    Day after tomorrow, 28 February, Wednesday

    Time Temperature Precipitation Wind Pressure Humidity
    00:00 +3°C° 0.4 mm 2 mps 739 mmHg 88%
    01:00 +3°C° 0.4 mm 2 mps 738 mmHg 89%
    02:00 +3°C° 0.7 mm 2 mps 738 mmHg 90%
    03:00 +3°C° 0.7 mm 2 mps 737 mmHg 91%
    04:00 +3°C° 0.7 mm 2 mps 737 mmHg 92%
    05:00 +3°C° 0.2 mm 2 mps 737 mmHg 91%
    06:00 +3°C° 0.2 mm 2 mps 737 mmHg 91%
    07:00 +4°C° 0.2 mm 1 mps 738 mmHg 91%
    08:00 +4°C° 0.2 mm 2 mps 738 mmHg 91%
    09:00 +5°C° 0.2 mm 2 mps 738 mmHg 91%
    10:00 +4°C° 0.2 mm 3 mps 739 mmHg 91%
    11:00 +4°C° 0.2 mm 4 mps 739 mmHg 89%
    12:00 +5°C° 0.2 mm 4 mps 740 mmHg 88%
    13:00 +5°C° 0.2 mm 5 mps 740 mmHg 86%
    14:00 +3°C° 0.1 mm 5 mps 741 mmHg 83%
    15:00 +3°C° 0.1 mm 5 mps 741 mmHg 79%
    16:00 +2°C° 0.1 mm 5 mps 742 mmHg 75%
    17:00 +1°C° 0 mm 4 mps 743 mmHg 78%
    18:00 +1°C° 0 mm 3 mps 744 mmHg 81%
    19:00 -1°C° 0 mm 2 mps 745 mmHg 83%
    20:00 -1°C° 0 mm 2 mps 745 mmHg 83%
    21:00 -2°C° 0 mm 2 mps 746 mmHg 83%
    22:00 -2°C° 0 mm 2 mps 747 mmHg 83%
    23:00 -2°C° 0 mm 2 mps 747 mmHg 82%

    1 March, Thursday

    Time Temperature Precipitation Wind Pressure Humidity
    00:00 -2°C° 0 mm 2 mps 747 mmHg 82%
    01:00 -2°C° 0 mm 2 mps 747 mmHg 82%
    02:00 -2°C° 0 mm 2 mps 747 mmHg 81%
    03:00 -2°C° 0 mm 2 mps 747 mmHg 79%
    04:00 -2°C° 0 mm 2 mps 747 mmHg 78%
    05:00 -2°C° 0 mm 2 mps 747 mmHg 76%
    06:00 -1°C° 0 mm 2 mps 747 mmHg 74%
    07:00 -1°C° 0 mm 2 mps 747 mmHg 72%
    08:00 +2°C° 0 mm 2 mps 747 mmHg 69%
    09:00 +4°C° 0 mm 2 mps 747 mmHg 66%
    10:00 +6°C° 0 mm 2 mps 747 mmHg 63%
    11:00 +6°C° 0 mm 2 mps 746 mmHg 66%
    12:00 +6°C° 0 mm 2 mps 746 mmHg 68%
    13:00 +7°C° 0 mm 2 mps 746 mmHg 70%
    14:00 +7°C° 0 mm 2 mps 745 mmHg 73%
    15:00 +7°C° 0 mm 2 mps 745 mmHg 76%
    16:00 +7°C° 0 mm 2 mps 745 mmHg 78%
    17:00 +5°C° 0 mm 3 mps 744 mmHg 79%
    18:00 +5°C° 0 mm 3 mps 744 mmHg 81%
    19:00 +4°C° 0 mm 3 mps 744 mmHg 82%
    20:00 +4°C° 0 mm 3 mps 744 mmHg 82%
    21:00 +4°C° 0 mm 4 mps 744 mmHg 82%
    22:00 +4°C° 0 mm 4 mps 744 mmHg 83%
    23:00 +4°C° 0 mm 4 mps 743 mmHg 83%

    2 March, Friday

    Time Temperature Precipitation Wind Pressure Humidity
    00:00 +5°C° 0 mm 4 mps 743 mmHg 83%
    01:00 +5°C° 0 mm 4 mps 742 mmHg 83%
    02:00 +5°C° 0 mm 4 mps 742 mmHg 83%
    03:00 +5°C° 0 mm 4 mps 741 mmHg 84%
    04:00 +5°C° 0 mm 4 mps 740 mmHg 84%
    05:00 +6°C° 0.1 mm 4 mps 740 mmHg 85%
    06:00 +6°C° 0.1 mm 4 mps 740 mmHg 85%
    07:00 +6°C° 0.1 mm 4 mps 740 mmHg 85%
    08:00 +7°C° 0 mm 4 mps 740 mmHg 83%
    09:00 +8°C° 0 mm 5 mps 740 mmHg 81%
    10:00 +10°C° 0 mm 5 mps 739 mmHg 80%
    11:00 +11°C° 0.2 mm 4 mps 739 mmHg 78%
    12:00 +12°C° 0.2 mm 4 mps 738 mmHg 77%
    13:00 +12°C° 0.2 mm 4 mps 738 mmHg 76%
    14:00 +12°C° 0.1 mm 4 mps 738 mmHg 78%
    15:00 +11°C° 0.1 mm 3 mps 738 mmHg 81%
    16:00 +12°C° 0.1 mm 2 mps 738 mmHg 83%
    17:00 +10°C° 0.1 mm 3 mps 738 mmHg 85%
    18:00 +9°C° 0.1 mm 3 mps 738 mmHg 86%
    19:00 +9°C° 0.1 mm 3 mps 738 mmHg 88%
    20:00 +8°C° 0.1 mm 3 mps 738 mmHg 88%
    21:00 +8°C° 0.1 mm 2 mps 738 mmHg 88%
    22:00 +8°C° 0.1 mm 2 mps 738 mmHg 87%
    23:00 +8°C° 0.2 mm 2 mps 738 mmHg 87%

    3 March, Saturday

    Time Temperature Precipitation Wind Pressure Humidity
    00:00 +8°C° 0.2 mm 2 mps 738 mmHg 87%
    01:00 +8°C° 0.2 mm 2 mps 738 mmHg 87%
    02:00 +8°C° 0.1 mm 2 mps 738 mmHg 87%
    03:00 +8°C° 0.1 mm 2 mps 737 mmHg 86%
    04:00 +9°C° 0.1 mm 2 mps 737 mmHg 85%
    05:00 +9°C° 0.2 mm 2 mps 737 mmHg 86%
    06:00 +9°C° 0.2 mm 2 mps 738 mmHg 86%
    07:00 +9°C° 0.2 mm 2 mps 738 mmHg 86%
    08:00 +9°C° 0.6 mm 2 mps 738 mmHg 86%
    09:00 +10°C° 0.6 mm 3 mps 738 mmHg 87%
    10:00 +10°C° 0.6 mm 3 mps 738 mmHg 88%
    11:00 +11°C° 0.3 mm 3 mps 738 mmHg 87%
    12:00 +11°C° 0.3 mm 3 mps 738 mmHg 86%
    13:00 +12°C° 0.3 mm 3 mps 737 mmHg 85%
    14:00 +11°C° 1.3 mm 3 mps 737 mmHg 88%
    15:00 +12°C° 1.3 mm 2 mps 737 mmHg 91%
    16:00 +10°C° 1.3 mm 2 mps 737 mmHg 94%
    17:00 +10°C° 0.8 mm 2 mps 737 mmHg 94%
    18:00 +10°C° 0.8 mm 2 mps 737 mmHg 93%
    19:00 +10°C° 0.8 mm 2 mps 738 mmHg 93%
    20:00 +10°C° 0 mm 2 mps 738 mmHg 93%
    21:00 +9°C° 0 mm 2 mps 738 mmHg 92%
    22:00 +9°C° 0 mm 2 mps 738 mmHg 92%
    23:00 +9°C° 0 mm 2 mps 738 mmHg 92%
    Show more